Satellite-Ground Cal/Val Site Overpasses Predictions

Prediction of Satellite NPP Overpassing Cal/Val Site: Antarctic Dome C

Ground Cal/Val Site Location: Latitude: -75.10, Longitude: 123.35; Satellite-Ground Site NADIR distance within 100 km.

Table of predicted overpasses for the next 14.0 days since TLE Epoch: 6/8/2024
Interval Starting Time Ending Time Minimum Distance Time Minimum Distance (km)
1 06/09/2024 14:54:52 06/09/2024 14:55:20 06/09/2024 14:55:06 20.41
2 06/10/2024 14:36:07 06/10/2024 14:36:22 06/10/2024 14:36:14 86.75
3 06/11/2024 07:37:38 06/11/2024 07:38:06 06/11/2024 07:37:52 36.16
4 06/12/2024 07:18:50 06/12/2024 07:19:10 06/12/2024 07:19:00 74.06
5 06/14/2024 15:01:00 06/14/2024 15:01:24 06/14/2024 15:01:12 56.62
6 06/15/2024 14:42:09 06/15/2024 14:42:33 06/15/2024 14:42:21 52.62
7 06/16/2024 07:43:47 06/16/2024 07:44:08 06/16/2024 07:43:58 70.58
8 06/17/2024 07:24:53 06/17/2024 07:25:20 06/17/2024 07:25:07 37.63
9 06/19/2024 15:07:14 06/19/2024 15:07:24 06/19/2024 15:07:19 93.38
